When you browse on this site, cookies collect data to enhance your experience and personalize the content and advertising you see.
Visit our Privacy Policy to learn more. By continuing to use the site, you agree to this use of cookies and data.
  • In Hungary
  • List of Countries
  • For 7 days
  • Water Temperature
  • Weather Map
  • News
  • Weather Widgets
  • user-avatar
    Login

    Hourly Weather Gelnhausen

    Today, 10 December, Tuesday

    Time Temperature Precipitation Wind Pressure Humidity
    00:00 +3°C° 0.1 mm 4 mps 749 mmHg 83%
    01:00 +1°C° 0.1 mm 4 mps 750 mmHg 82%
    02:00 +2°C° 0 mm 3 mps 751 mmHg 83%
    03:00 +2°C° 0 mm 2 mps 752 mmHg 85%
    04:00 +2°C° 0 mm 2 mps 752 mmHg 87%
    05:00 +1°C° 0 mm 2 mps 753 mmHg 88%
    06:00 +1°C° 0 mm 2 mps 754 mmHg 88%
    07:00 +1°C° 0 mm 2 mps 755 mmHg 89%
    08:00 +2°C° 0 mm 2 mps 755 mmHg 87%
    09:00 +2°C° 0 mm 2 mps 756 mmHg 85%
    10:00 +2°C° 0 mm 2 mps 756 mmHg 83%
    11:00 +3°C° 0 mm 2 mps 756 mmHg 79%
    12:00 +4°C° 0 mm 2 mps 756 mmHg 75%
    13:00 +5°C° 0 mm 2 mps 756 mmHg 70%
    14:00 +4°C° 0 mm 2 mps 755 mmHg 74%
    15:00 +4°C° 0 mm 2 mps 755 mmHg 77%
    16:00 +3°C° 0 mm 2 mps 754 mmHg 80%
    17:00 +2°C° 0 mm 2 mps 754 mmHg 84%
    18:00 +2°C° 0 mm 2 mps 753 mmHg 87%
    19:00 +1°C° 0 mm 2 mps 753 mmHg 91%
    20:00 +1°C° 0 mm 2 mps 752 mmHg 90%
    21:00 +1°C° 0 mm 2 mps 752 mmHg 89%
    22:00 +1°C° 0 mm 2 mps 751 mmHg 87%
    23:00 +1°C° 0 mm 2 mps 751 mmHg 87%

    Tomorrow, 11 December, Wednesday

    Time Temperature Precipitation Wind Pressure Humidity
    00:00 +1°C° 0 mm 2 mps 750 mmHg 86%
    01:00 +1°C° 0 mm 2 mps 750 mmHg 85%
    02:00 +1°C° 0 mm 2 mps 749 mmHg 83%
    03:00 0°C° 0 mm 3 mps 748 mmHg 81%
    04:00 0°C° 0 mm 3 mps 747 mmHg 80%
    05:00 +2°C° 0.2 mm 2 mps 747 mmHg 80%
    06:00 +2°C° 0.2 mm 2 mps 747 mmHg 80%
    07:00 +2°C° 0.2 mm 2 mps 746 mmHg 81%
    08:00 +2°C° 0.3 mm 2 mps 746 mmHg 81%
    09:00 +2°C° 0.3 mm 2 mps 745 mmHg 81%
    10:00 +2°C° 0.3 mm 2 mps 745 mmHg 82%
    11:00 +2°C° 0.3 mm 2 mps 745 mmHg 82%
    12:00 +2°C° 0.3 mm 2 mps 744 mmHg 83%
    13:00 +2°C° 0.3 mm 2 mps 743 mmHg 83%
    14:00 +2°C° 0.3 mm 2 mps 743 mmHg 86%
    15:00 +2°C° 0.3 mm 2 mps 742 mmHg 89%
    16:00 +2°C° 0.3 mm 2 mps 742 mmHg 91%
    17:00 +2°C° 0.3 mm 2 mps 742 mmHg 93%
    18:00 +3°C° 0.3 mm 2 mps 742 mmHg 94%
    19:00 +3°C° 0.3 mm 2 mps 742 mmHg 95%
    20:00 +3°C° 0.1 mm 2 mps 742 mmHg 94%
    21:00 +3°C° 0.1 mm 2 mps 742 mmHg 93%
    22:00 +4°C° 0.1 mm 2 mps 742 mmHg 93%
    23:00 +3°C° 0 mm 2 mps 742 mmHg 93%

    Day after tomorrow, 12 December, Thursday

    Time Temperature Precipitation Wind Pressure Humidity
    00:00 +3°C° 0 mm 2 mps 742 mmHg 94%
    01:00 +3°C° 0 mm 2 mps 741 mmHg 94%
    02:00 +3°C° 0 mm 2 mps 741 mmHg 95%
    03:00 +3°C° 0 mm 2 mps 741 mmHg 95%
    04:00 +2°C° 0 mm 2 mps 740 mmHg 95%
    05:00 +2°C° 0 mm 2 mps 741 mmHg 95%
    06:00 +2°C° 0 mm 2 mps 741 mmHg 95%
    07:00 +2°C° 0 mm 2 mps 741 mmHg 96%
    08:00 +3°C° 0.1 mm 2 mps 741 mmHg 96%
    09:00 +3°C° 0.1 mm 2 mps 741 mmHg 96%
    10:00 +3°C° 0.1 mm 2 mps 741 mmHg 97%
    11:00 +3°C° 0.2 mm 2 mps 741 mmHg 96%
    12:00 +3°C° 0.2 mm 2 mps 741 mmHg 96%
    13:00 +3°C° 0.2 mm 2 mps 741 mmHg 96%
    14:00 +3°C° 0.1 mm 2 mps 740 mmHg 92%
    15:00 +2°C° 0.1 mm 3 mps 740 mmHg 89%
    16:00 +2°C° 0.1 mm 3 mps 739 mmHg 86%
    17:00 +1°C° 0 mm 3 mps 738 mmHg 85%
    18:00 +1°C° 0 mm 3 mps 738 mmHg 83%
    19:00 +1°C° 0 mm 3 mps 737 mmHg 82%
    20:00 +1°C° 0 mm 3 mps 735 mmHg 84%
    21:00 -1°C° 0 mm 4 mps 734 mmHg 85%
    22:00 -2°C° 0 mm 4 mps 732 mmHg 87%
    23:00 -1°C° 0.2 mm 5 mps 730 mmHg 86%

    13 December, Friday

    Time Temperature Precipitation Wind Pressure Humidity
    00:00 -1°C° 0.2 mm 5 mps 728 mmHg 86%
    01:00 -2°C° 0.2 mm 6 mps 726 mmHg 86%
    02:00 -2°C° 2.1 mm 6 mps 725 mmHg 89%
    03:00 -2°C° 2.1 mm 7 mps 724 mmHg 93%
    04:00 -2°C° 2.1 mm 7 mps 722 mmHg 97%
    05:00 -1°C° 1.1 mm 6 mps 722 mmHg 96%
    06:00 +1°C° 1.1 mm 6 mps 721 mmHg 96%
    07:00 +2°C° 1.1 mm 5 mps 721 mmHg 95%
    08:00 +2°C° 0.5 mm 5 mps 721 mmHg 94%
    09:00 +2°C° 0.5 mm 5 mps 722 mmHg 93%
    10:00 +2°C° 0.5 mm 5 mps 722 mmHg 92%
    11:00 +2°C° 0.2 mm 5 mps 722 mmHg 89%
    12:00 +2°C° 0.2 mm 6 mps 722 mmHg 86%
    13:00 +2°C° 0.2 mm 6 mps 722 mmHg 83%
    14:00 +2°C° 0.7 mm 6 mps 722 mmHg 87%
    15:00 0°C° 0.7 mm 7 mps 722 mmHg 91%
    16:00 0°C° 0.7 mm 8 mps 722 mmHg 95%
    17:00 +1°C° 1 mm 8 mps 722 mmHg 95%
    18:00 +2°C° 1 mm 7 mps 722 mmHg 94%
    19:00 +2°C° 1 mm 7 mps 722 mmHg 94%
    20:00 +3°C° 0.5 mm 7 mps 723 mmHg 92%
    21:00 +3°C° 0.5 mm 7 mps 724 mmHg 90%
    22:00 +3°C° 0.5 mm 7 mps 724 mmHg 88%
    23:00 +3°C° 0.2 mm 7 mps 725 mmHg 88%

    14 December, Saturday

    Time Temperature Precipitation Wind Pressure Humidity
    00:00 +3°C° 0.2 mm 7 mps 726 mmHg 88%
    01:00 +3°C° 0.2 mm 7 mps 726 mmHg 88%
    02:00 +2°C° 0.4 mm 6 mps 727 mmHg 87%
    03:00 +2°C° 0.4 mm 6 mps 727 mmHg 87%
    04:00 +2°C° 0.4 mm 6 mps 727 mmHg 86%
    05:00 +2°C° 0.9 mm 6 mps 727 mmHg 89%
    06:00 +1°C° 0.9 mm 6 mps 726 mmHg 93%
    07:00 +1°C° 0.9 mm 6 mps 725 mmHg 96%
    08:00 +2°C° 1.1 mm 6 mps 725 mmHg 94%
    09:00 +3°C° 1.1 mm 6 mps 725 mmHg 93%
    10:00 +4°C° 1.1 mm 6 mps 725 mmHg 91%
    11:00 +4°C° 0.2 mm 6 mps 727 mmHg 85%
    12:00 +4°C° 0.2 mm 6 mps 728 mmHg 79%
    13:00 +4°C° 0.2 mm 7 mps 730 mmHg 73%
    14:00 +4°C° 0.7 mm 6 mps 731 mmHg 80%
    15:00 +3°C° 0.7 mm 5 mps 732 mmHg 86%
    16:00 +2°C° 0.7 mm 5 mps 732 mmHg 93%
    17:00 +2°C° 0.2 mm 5 mps 733 mmHg 89%
    18:00 +3°C° 0.2 mm 4 mps 734 mmHg 86%
    19:00 +3°C° 0.2 mm 4 mps 735 mmHg 83%
    20:00 +2°C° 0.3 mm 5 mps 736 mmHg 82%
    21:00 +3°C° 0.3 mm 5 mps 737 mmHg 81%
    22:00 +3°C° 0.3 mm 6 mps 738 mmHg 81%
    23:00 +3°C° 0.1 mm 6 mps 738 mmHg 82%

    15 December, Sunday

    Time Temperature Precipitation Wind Pressure Humidity
    00:00 +2°C° 0.1 mm 6 mps 739 mmHg 84%
    01:00 +2°C° 0.1 mm 5 mps 740 mmHg 85%
    02:00 +2°C° 0 mm 5 mps 740 mmHg 85%
    03:00 +3°C° 0 mm 4 mps 741 mmHg 86%
    04:00 +3°C° 0 mm 4 mps 741 mmHg 86%
    05:00 +3°C° 0 mm 3 mps 741 mmHg 87%
    06:00 +3°C° 0 mm 3 mps 741 mmHg 88%
    07:00 +4°C° 0 mm 2 mps 741 mmHg 89%
    08:00 +3°C° 0.3 mm 3 mps 740 mmHg 90%
    09:00 +4°C° 0.3 mm 3 mps 740 mmHg 92%
    10:00 +5°C° 0.3 mm 4 mps 740 mmHg 94%
    11:00 +6°C° 0.3 mm 4 mps 740 mmHg 93%
    12:00 +7°C° 0.3 mm 4 mps 739 mmHg 93%
    13:00 +8°C° 0.3 mm 5 mps 739 mmHg 92%
    14:00 +8°C° 0.2 mm 5 mps 739 mmHg 91%
    15:00 +8°C° 0.2 mm 5 mps 740 mmHg 90%
    16:00 +8°C° 0.2 mm 5 mps 740 mmHg 89%
    17:00 +8°C° 0.3 mm 4 mps 740 mmHg 91%
    18:00 +8°C° 0.3 mm 4 mps 741 mmHg 92%
    19:00 +9°C° 0.3 mm 3 mps 741 mmHg 93%
    20:00 +9°C° 0.3 mm 3 mps 741 mmHg 92%
    21:00 +9°C° 0.3 mm 3 mps 741 mmHg 92%
    22:00 +9°C° 0.3 mm 3 mps 741 mmHg 91%
    23:00 +8°C° 0 mm 3 mps 741 mmHg 91%
    Show more